Temperature
16 16 16 16 16 16 16 16 15 15 15 15 15 15 15 15 14 14 14 14 14 14 14 14 14 14 13 13 13 13 13 13 13 12 12 12 12 12 12 12 12 12 12
16 15 16 16 16 16 16 16 16 15 15 15 15 15 15 15 14 14 14 14 14 14 14 14 14 14 13 13 13 13 13 12 12 11 11 11 12 12 12 12 12 12 11
15 15 15 16 16 16 16 16 16 15 15 15 15 15 15 15 14 14 14 14 14 14 14 14 14 13 13 13 13 13 12 12 11 11 11 11 12 11 11 11 11 11 11
15 15 15 16 16 16 16 16 16 15 15 15 15 15 15 14 14 14 14 14 14 13 13 13 13 13 13 13 13 12 12 11 11 11 10 10 10 10 10 10 10 10 10
15 15 15 15 15 16 15 15 15 15 15 15 15 14 14 14 14 14 13 13 13 13 13 13 13 12 12 12 12 11 11 11 10 10 10 9 9 9 9 9 9 9 9
14 14 14 15 15 15 15 15 15 15 14 14 14 14 14 13 13 13 13 12 12 12 12 12 12 12 11 11 11 11 10 10 10 10 9 9 9 9 9 8 8 8 8
14 13 13 14 14 14 14 14 14 14 14 13 13 13 13 13 12 12 12 11 11 11 11 11 11 10 10 10 10 10 10 10 9 9 9 8 8 8 8 8 7 7 7
13 12 13 13 14 14 13 13 13 13 13 12 12 12 12 12 11 11 11 11 10 10 10 10 10 9 9 9 9 9 9 9 9 8 8 8 8 7 7 7 7 6 6
11 11 11 12 12 13 12 12 12 12 12 12 11 11 11 11 10 10 10 9 9 9 9 9 9 9 8 8 8 8 8 8 8 8 7 7 7 7 7 6 6 6 6
10 10 10 10 11 11 11 11 11 11 11 11 11 10 10 10 9 9 9 8 8 8 8 8 8 8 8 8 7 7 7 7 7 7 6 6 6 6 6 6 5 5 5
9 9 9 9 10 10 10 10 10 10 10 10 10 9 9 9 8 8 8 7 7 7 7 7 7 7 7 7 7 6 6 6 6 6 6 6 6 5 5 5 5 5 4
9 8 8 9 9 9 10 10 10 10 9 9 9 8 8 8 7 7 7 7 6 6 6 6 6 6 6 6 6 6 6 5 5 5 5 5 5 5 4 4 4 4 4
8 8 8 9 9 9 10 9 9 9 9 8 8 8 7 7 6 6 6 6 6 5 5 5 5 5 5 5 5 5 5 5 5 4 4 4 4 4 4 4 4 3 3
9 8 9 9 9 9 9 9 9 9 8 8 7 7 6 6 6 5 5 5 5 4 4 4 4 4 4 4 4 4 4 4 4 4 3 3 3 3 3 3 3 3 2
9 9 9 9 10 10 9 9 9 8 8 7 7 6 6 5 5 4 4 4 4 3 4 4 4 4 4 4 3 3 3 3 3 3 3 3 3 3 2 2 2 2 1
9 10 10 10 10 10 10 9 9 8 7 7 6 6 5 5 4 4 3 3 3 3 3 3 3 3 3 3 3 3 3 3 3 3 2 2 2 2 2 1 1 1 0
9 10 10 10 10 10 10 9 9 8 7 6 6 5 4 4 3 3 2 2 2 2 2 2 2 2 2 2 2 2 2 2 2 2 2 2 1 1 1 0 0 -0 -0
9 9 10 10 10 10 10 9 8 8 7 6 5 5 4 3 3 2 2 2 2 1 1 1 1 2 2 2 2 2 2 2 2 2 1 1 1 0 0 -0 -1 -1 -1
9 9 10 10 10 10 10 9 8 7 7 6 5 4 4 3 2 2 2 1 1 1 1 1 1 1 1 1 2 2 1 1 1 1 1 1 0 -0 -0 -1 -1 -2 -2
9 9 10 10 10 10 9 9 8 7 7 6 5 4 3 3 2 2 1 1 1 1 1 1 1 1 1 1 1 1 1 1 1 1 1 0 -0 -0 -1 -1 -2 -2 -3
9 9 9 9 9 9 9 8 8 7 6 5 4 3 3 2 2 1 1 1 1 0 0 0 0 0 1 1 1 1 1 1 1 0 0 -0 -0 -1 -1 -2 -2 -3 -3
8 8 8 8 8 8 8 8 7 6 5 4 3 3 2 2 1 1 1 0 0 0 0 -0 0 0 0 0 0 1 0 0 0 0 -0 -0 -1 -1 -1 -2 -2 -3 -3
7 7 7 7 7 7 7 6 6 5 4 4 3 2 2 1 1 1 1 0 0 0 -0 -0 0 0 0 0 0 0 0 0 -0 -0 -0 -1 -1 -1 -2 -2 -3 -3 -4
7 7 7 7 6 6 6 5 5 4 4 3 3 2 1 1 1 1 0 0 1 0 0 0 0 0 0 0 0 0 0 -0 -0 -1 -1 -1 -1 -2 -2 -2 -3 -3 -4
6 6 6 6 6 5 5 5 4 4 3 3 2 2 1 1 1 1 1 1 1 0 0 0 0 0 0 0 0 -0 -0 -0 -1 -1 -1 -1 -2 -2 -2 -3 -3 -4 -4
6 6 5 5 5 5 5 4 4 3 3 2 2 2 1 1 0 0 0 0 0 0 -0 -0 -0 -0 -0 -0 -0 -0 -1 -1 -1 -1 -1 -2 -2 -2 -3 -3 -3 -4 -4
Wind_Speed
7 4 4 4 6 7 8 8 8 7 7 6 6 5 5 5 4 4 5 5 6 6 7 6 7 7 7 8 9 8 8 7 6 5 7 9 11 10 9 8 8 8 8
9 7 5 5 6 7 7 7 7 6 6 5 4 3 3 3 3 2 2 2 4 5 5 6 6 6 6 8 8 7 6 5 5 5 6 7 8 7 6 6 5 6 5
14 11 8 7 7 7 7 6 6 5 5 5 4 3 2 2 3 3 2 1 2 3 3 5 5 5 6 7 7 7 8 7 6 6 6 6 6 5 4 5 4 4 4
15 12 10 9 8 7 6 6 6 5 4 4 5 6 5 5 3 2 1 0 1 2 2 3 4 5 5 6 7 7 7 8 8 6 7 9 7 6 5 4 4 4 5
16 13 12 10 8 8 7 6 6 5 4 4 4 4 4 3 2 2 2 1 0 2 3 3 3 4 4 5 6 6 6 6 8 7 6 7 7 8 7 8 6 5 4
14 12 10 9 9 8 8 7 7 6 5 4 3 3 4 3 3 3 2 2 1 1 3 4 3 3 3 4 5 5 6 6 7 6 6 6 6 5 6 7 7 6 4
14 13 12 13 12 11 10 8 8 7 5 5 4 3 3 3 3 2 2 1 1 1 3 3 3 3 4 4 4 4 3 4 4 4 4 4 4 4 5 6 6 6 4
11 13 13 13 13 12 11 10 9 8 6 5 4 3 3 2 1 1 1 1 1 1 2 3 3 3 4 4 3 2 2 2 2 2 2 1 2 3 2 3 4 5 4
9 11 12 12 12 12 11 10 9 8 7 6 5 4 3 2 2 1 1 0 1 1 2 2 2 3 4 3 2 2 2 2 2 3 3 2 3 3 3 2 2 3 4
7 9 10 12 12 11 10 9 9 8 7 6 4 3 3 3 2 2 1 1 1 1 1 2 2 3 3 3 2 3 3 4 4 4 5 5 3 3 3 3 2 2 2
6 8 10 11 11 10 10 9 8 8 7 6 5 4 4 3 3 2 2 1 1 1 1 1 2 3 3 3 3 4 4 5 5 5 6 6 5 4 4 4 3 3 2
5 8 10 11 11 11 10 9 8 8 7 6 5 5 4 4 3 3 2 2 2 2 2 2 2 3 3 4 4 5 5 6 6 6 6 6 5 6 5 4 4 3 3
6 8 10 11 11 11 10 9 9 8 8 7 6 6 5 4 4 3 3 3 2 2 2 3 3 3 4 4 5 5 6 6 7 6 7 6 6 6 5 5 4 4 3
7 9 11 11 11 11 10 10 9 9 8 8 7 6 6 5 4 4 4 3 3 3 3 3 4 4 4 4 5 5 6 7 7 7 7 6 6 6 5 5 5 4 3
9 11 12 12 12 12 11 10 10 10 9 9 8 7 6 6 5 5 4 4 4 3 4 4 4 4 4 4 4 5 5 6 6 6 6 7 8 8 7 5 5 4 3
12 13 13 14 14 14 13 12 11 11 10 10 9 8 8 7 6 6 5 5 4 4 4 4 4 4 4 6 6 5 5 5 4 4 4 5 6 7 8 9 8 7 4
13 13 14 15 15 15 14 14 13 12 11 10 9 9 9 8 7 7 6 6 5 5 4 4 4 4 6 7 7 6 4 4 4 3 3 3 3 4 3 4 5 6 6
12 12 12 13 13 13 13 12 12 13 12 11 11 10 9 9 8 8 7 6 5 5 5 4 4 4 5 6 6 6 4 3 3 2 1 1 1 2 3 3 3 3 3
10 10 10 10 10 12 13 13 13 13 12 12 12 11 10 10 9 9 8 6 6 5 4 4 4 3 4 5 6 5 3 2 2 1 0 1 1 2 2 2 2 2 1
5 5 5 7 9 11 12 13 13 13 13 13 12 11 11 10 10 9 8 6 6 5 5 4 4 4 4 5 6 5 2 2 2 1 1 1 3 3 3 3 3 3 3
2 0 3 5 6 9 12 12 12 13 12 11 10 11 10 10 9 9 8 7 6 6 6 6 6 6 5 6 7 7 3 3 2 2 2 2 3 4 4 4 4 4 4
2 2 2 3 5 8 10 10 10 9 10 10 10 10 10 9 8 9 8 8 8 8 7 7 7 6 6 7 7 8 7 5 4 3 3 2 4 5 4 4 4 3 4
1 1 2 3 4 6 8 8 8 9 10 10 10 10 10 9 9 9 9 8 8 7 7 7 7 6 6 7 10 10 9 9 6 4 4 5 5 5 4 4 5 4 4
0 1 2 3 4 5 6 6 7 9 10 11 10 10 10 9 9 8 8 9 9 8 8 8 7 6 6 7 7 7 7 8 7 5 5 7 6 6 6 5 5 4 5
1 2 3 3 4 5 6 6 8 9 10 10 9 9 9 9 9 9 9 10 10 10 9 8 7 7 7 9 11 8 7 7 6 5 5 5 5 5 5 5 5 5 5
2 2 3 4 4 5 6 7 8 10 10 9 9 8 8 8 8 8 8 12 11 13 15 12 9 8 9 8 11 14 13 12 10 8 6 6 6 6 6 6 6 6 6
Wind_Direction
241 206 193 194 193 194 197 198 200 199 199 197 204 211 218 219 220 226 239 246 251 251 249 254 259 255 252 256 258 257 258 258 261 268 275 271 263 261 261 263 269 270 268
230 217 198 191 198 193 191 193 196 197 201 205 207 214 215 219 221 212 227 267 271 268 262 261 263 260 260 260 259 253 255 255 240 250 278 284 276 248 245 254 262 274 275
235 226 211 197 193 191 184 181 182 183 186 187 178 171 180 189 200 209 215 306 308 295 280 276 275 271 265 265 264 256 250 257 250 237 253 274 279 296 246 245 258 270 277
230 226 215 204 194 182 170 170 167 164 166 180 195 202 211 219 215 211 199 171 14 347 325 302 290 281 274 270 271 266 261 260 260 248 241 253 273 276 281 252 249 267 284
228 221 214 204 187 172 164 160 155 148 147 163 181 195 204 204 187 188 196 198 102 26 3 338 316 301 291 284 282 277 267 259 260 259 250 248 250 249 257 272 270 264 272
229 224 210 191 178 168 161 158 152 141 137 139 147 166 179 184 191 203 213 217 216 20 13 354 338 324 314 303 296 286 275 267 265 267 262 259 255 251 251 263 271 274 275
229 219 202 189 180 173 167 163 156 146 140 136 133 138 155 175 197 210 223 241 259 316 356 353 343 336 328 319 309 297 294 290 279 276 274 274 277 284 272 271 276 275 272
230 220 206 193 182 175 170 167 162 151 146 141 134 130 138 153 156 166 227 265 314 348 350 347 347 345 341 335 328 322 330 332 324 328 320 317 345 340 314 288 281 276 266
228 216 201 189 180 175 172 169 162 155 151 146 141 134 130 132 134 130 121 85 12 357 354 355 1 4 3 359 360 13 18 29 35 33 37 39 30 21 11 351 300 271 268
221 205 193 183 176 171 166 166 164 158 153 151 147 138 131 125 129 134 125 102 57 23 9 20 25 26 26 28 43 54 52 67 60 56 63 58 44 42 32 20 11 343 281
209 192 183 176 169 165 165 166 163 159 158 157 153 150 141 135 137 131 116 105 85 57 48 51 54 51 49 52 67 71 73 79 75 69 70 65 55 53 41 36 34 28 352
197 185 178 173 172 171 171 171 169 167 164 161 160 156 150 151 150 137 122 114 104 85 76 79 79 72 66 67 78 82 80 82 79 74 72 65 61 58 46 42 42 36 18
193 186 183 183 181 178 177 177 176 171 166 166 167 166 166 166 160 149 140 129 118 108 99 95 93 87 81 81 83 88 87 83 78 75 73 69 66 61 51 46 40 33 27
205 200 196 194 190 186 184 182 180 175 171 171 174 177 175 172 164 155 147 138 129 118 109 103 99 96 93 91 93 94 94 89 80 73 69 63 60 59 52 46 37 27 30
218 209 206 202 196 192 190 187 183 178 175 177 179 179 174 169 163 159 152 144 134 123 116 114 109 105 102 99 103 102 100 98 90 77 67 61 57 53 48 41 31 25 22
232 219 213 208 203 199 194 189 186 181 180 182 181 174 173 171 169 165 160 150 141 132 126 121 116 111 102 104 101 103 101 98 94 85 75 68 59 54 54 49 42 33 26
242 227 218 214 210 203 195 192 187 179 182 184 180 177 176 175 173 170 167 159 150 144 140 132 129 119 111 113 110 103 106 103 92 86 81 70 56 41 41 47 46 49 45
247 236 225 219 213 202 194 187 179 179 182 184 182 180 179 178 174 174 172 164 158 159 154 147 145 135 127 126 125 122 114 109 101 88 70 57 39 32 9 15 15 20 32
261 248 231 219 205 193 185 178 178 181 184 187 185 183 181 179 178 179 177 170 168 167 165 161 159 157 155 151 150 155 152 147 143 136 13 332 334 1 335 342 342 333 355
279 254 221 199 190 182 175 177 181 184 190 189 186 182 182 183 183 182 178 174 174 174 174 178 187 190 192 183 183 193 197 194 191 206 232 284 307 323 313 302 305 308 320
353 349 175 177 177 169 172 181 185 192 189 180 178 179 182 185 182 177 176 174 178 180 187 193 202 208 213 206 206 210 220 221 224 237 247 248 292 303 308 297 289 302 303
32 70 132 142 153 166 176 184 192 185 173 172 175 179 182 182 178 176 177 181 185 190 197 204 211 215 217 223 220 220 225 227 236 243 248 256 279 294 298 289 293 286 279
36 75 131 141 157 177 187 192 187 171 171 175 180 182 183 184 181 183 184 187 194 201 204 210 217 217 215 219 226 229 228 227 236 244 250 262 273 278 273 273 282 274 268
260 174 174 181 187 192 199 198 177 173 177 182 184 184 185 187 188 192 193 196 200 205 209 214 219 219 217 216 214 218 225 229 234 240 241 249 258 261 266 266 257 256 263
257 224 222 228 219 202 202 192 179 177 184 189 190 190 193 193 196 201 205 206 211 211 210 214 216 216 222 219 212 210 214 218 223 227 235 240 245 248 248 248 251 250 249
261 246 241 240 233 217 211 199 189 188 190 195 196 196 197 198 201 205 214 223 224 223 225 226 223 226 232 226 218 219 223 225 226 228 239 243 245 249 253 254 252 247 246
Height
1532 1533 1535 1537 1539 1541 1544 1546 1548 1550 1552 1553 1554 1555 1556 1557 1558 1558 1559 1559 1559 1559 1559 1559 1559 1559 1558 1558 1557 1556 1555 1555 1554 1552 1550 1549 1548 1546 1545 1545 1544 1543 1542
1528 1530 1532 1534 1536 1538 1541 1543 1546 1547 1549 1550 1552 1553 1553 1554 1554 1554 1555 1555 1555 1555 1555 1555 1554 1554 1553 1553 1552 1551 1550 1550 1549 1548 1547 1545 1545 1542 1540 1540 1539 1539 1538
1524 1527 1528 1530 1533 1535 1538 1540 1542 1544 1546 1547 1548 1549 1550 1550 1550 1551 1550 1551 1550 1550 1550 1550 1549 1549 1548 1547 1547 1546 1545 1545 1544 1544 1544 1543 1540 1539 1537 1536 1535 1535 1534
1520 1522 1524 1526 1529 1531 1534 1536 1539 1540 1542 1543 1545 1545 1546 1546 1546 1546 1546 1546 1546 1545 1545 1544 1544 1543 1542 1542 1541 1540 1540 1539 1538 1538 1537 1538 1537 1536 1534 1533 1532 1531 1530
1515 1517 1520 1522 1525 1528 1530 1532 1534 1536 1538 1539 1541 1541 1542 1542 1542 1542 1541 1541 1541 1540 1540 1539 1538 1538 1537 1536 1535 1535 1534 1533 1533 1532 1532 1532 1531 1531 1530 1528 1528 1527 1526
1510 1512 1515 1518 1520 1523 1525 1528 1530 1532 1534 1535 1536 1537 1538 1538 1538 1537 1537 1536 1536 1535 1534 1534 1533 1532 1531 1530 1530 1529 1528 1528 1527 1527 1527 1526 1526 1526 1525 1524 1523 1522 1522
1505 1507 1509 1512 1515 1518 1521 1524 1526 1528 1530 1531 1532 1533 1533 1534 1533 1533 1533 1532 1531 1530 1529 1529 1528 1527 1526 1525 1525 1524 1523 1523 1522 1522 1521 1521 1520 1520 1520 1519 1518 1518 1517
1499 1502 1504 1506 1510 1513 1517 1519 1522 1524 1526 1528 1529 1529 1529 1529 1529 1529 1528 1527 1527 1526 1525 1524 1523 1522 1521 1521 1520 1519 1518 1518 1517 1516 1516 1515 1515 1515 1514 1515 1515 1514 1513
1495 1496 1499 1501 1505 1509 1513 1516 1519 1521 1522 1524 1525 1525 1525 1525 1525 1524 1524 1523 1522 1521 1521 1520 1519 1518 1517 1516 1515 1514 1514 1513 1512 1511 1511 1510 1510 1510 1509 1509 1510 1511 1509
1491 1493 1495 1497 1501 1506 1510 1513 1515 1517 1519 1520 1521 1521 1521 1521 1520 1520 1520 1519 1518 1517 1517 1516 1515 1514 1513 1512 1511 1510 1510 1509 1508 1507 1507 1506 1506 1505 1505 1505 1505 1505 1506
1489 1490 1492 1495 1499 1503 1506 1510 1512 1514 1515 1516 1517 1517 1517 1517 1517 1516 1516 1515 1514 1514 1513 1512 1511 1510 1509 1508 1508 1507 1506 1506 1505 1504 1504 1503 1503 1502 1502 1501 1501 1501 1501
1487 1489 1490 1493 1496 1500 1504 1507 1509 1511 1512 1513 1514 1514 1514 1513 1513 1513 1512 1512 1511 1510 1510 1509 1508 1507 1506 1506 1505 1504 1503 1503 1503 1502 1501 1501 1500 1500 1499 1499 1498 1498 1498
1487 1488 1489 1491 1495 1498 1501 1504 1506 1508 1509 1510 1510 1510 1510 1510 1509 1509 1509 1508 1508 1507 1506 1506 1505 1504 1504 1503 1502 1502 1501 1501 1500 1500 1499 1499 1498 1498 1497 1497 1496 1495 1495
1486 1487 1488 1490 1493 1496 1499 1501 1503 1505 1506 1506 1507 1507 1506 1506 1506 1506 1505 1505 1504 1504 1504 1503 1502 1502 1502 1501 1501 1500 1500 1499 1499 1498 1498 1497 1496 1496 1495 1495 1494 1493 1493
1483 1484 1485 1487 1490 1493 1495 1498 1499 1501 1502 1502 1503 1503 1503 1503 1502 1502 1502 1502 1502 1502 1501 1501 1500 1500 1500 1500 1499 1499 1499 1498 1498 1497 1497 1496 1495 1494 1494 1493 1492 1491 1491
1479 1480 1482 1484 1486 1488 1491 1493 1495 1497 1498 1498 1499 1499 1499 1499 1499 1499 1499 1499 1499 1499 1499 1499 1499 1499 1499 1498 1498 1498 1498 1497 1497 1496 1496 1495 1494 1493 1492 1491 1490 1489 1489
1475 1475 1477 1479 1481 1484 1487 1489 1491 1492 1493 1494 1495 1495 1496 1496 1496 1496 1497 1497 1497 1497 1498 1498 1498 1498 1498 1498 1497 1497 1497 1497 1496 1495 1494 1494 1493 1492 1491 1489 1488 1487 1486
1469 1470 1472 1474 1476 1479 1482 1484 1486 1487 1489 1490 1490 1491 1492 1492 1493 1493 1494 1494 1495 1496 1496 1496 1497 1497 1497 1497 1496 1496 1496 1496 1495 1494 1493 1492 1491 1490 1489 1488 1487 1486 1484
1464 1465 1467 1469 1471 1474 1476 1479 1480 1482 1484 1485 1486 1487 1488 1489 1489 1490 1491 1492 1493 1494 1494 1495 1495 1496 1496 1496 1495 1495 1495 1494 1494 1493 1492 1491 1490 1489 1487 1486 1485 1484 1483
1460 1461 1462 1464 1467 1469 1471 1473 1475 1477 1479 1480 1482 1483 1484 1485 1486 1488 1489 1490 1491 1492 1493 1493 1494 1494 1494 1494 1494 1494 1493 1493 1492 1491 1490 1489 1488 1487 1485 1484 1483 1482 1481
1458 1458 1459 1461 1463 1465 1467 1468 1470 1472 1475 1477 1478 1480 1481 1482 1483 1485 1486 1487 1488 1489 1490 1491 1492 1492 1492 1492 1492 1492 1492 1491 1490 1489 1488 1487 1486 1485 1483 1482 1481 1480 1479
1458 1458 1458 1459 1460 1462 1463 1465 1467 1469 1471 1472 1474 1476 1477 1479 1480 1481 1483 1484 1486 1487 1488 1488 1489 1489 1490 1490 1490 1490 1490 1489 1488 1487 1486 1485 1484 1483 1481 1480 1479 1478 1477
1458 1458 1458 1458 1459 1460 1461 1462 1464 1465 1467 1469 1470 1472 1473 1475 1476 1478 1479 1481 1482 1484 1484 1485 1486 1486 1487 1487 1487 1487 1487 1486 1486 1485 1484 1483 1481 1480 1479 1478 1476 1475 1474
1458 1458 1457 1458 1458 1458 1459 1460 1461 1462 1464 1465 1467 1468 1470 1471 1473 1474 1476 1477 1478 1480 1481 1482 1482 1483 1483 1483 1484 1484 1483 1483 1482 1482 1481 1480 1478 1477 1476 1474 1473 1472 1471
1457 1457 1456 1456 1456 1456 1457 1457 1458 1459 1460 1461 1463 1464 1465 1467 1468 1470 1472 1473 1475 1476 1477 1478 1479 1479 1480 1480 1480 1480 1480 1480 1479 1478 1477 1476 1475 1474 1472 1471 1470 1468 1467
1456 1455 1455 1454 1454 1454 1454 1455 1455 1456 1457 1458 1459 1460 1461 1463 1464 1466 1468 1469 1471 1472 1473 1473 1474 1475 1476 1476 1476 1476 1476 1476 1475 1474 1473 1472 1471 1469 1468 1467 1466 1464 1463